Temp
76 76 76 76 76 76 75 74 75 74 74 75 74 74 74 73 74 73 73 73 73 73 73 73 73 73 74 74 74 76 76 73 74 74 74 74 73 73 72 73 73 74
75 76 77 76 76 75 75 74 74 74 74 74 75 75 74 74 74 74 73 73 73 73 73 73 74 74 74 75 74 74 74 73 72 75 72 72 73 72 71 71 72 74
75 75 75 75 74 73 73 73 74 74 74 74 74 74 74 74 73 74 74 74 73 73 73 73 73 73 73 74 74 74 73 72 72 73 73 72 72 72 72 73 72 72
75 75 75 74 73 72 73 73 74 74 74 73 74 74 74 74 74 73 73 74 73 73 73 73 73 74 75 74 73 74 73 73 73 73 72 72 72 73 72 73 73 74
73 74 74 74 74 74 73 73 73 74 73 74 74 74 74 73 73 74 74 74 74 74 73 73 73 73 73 73 74 73 72 73 72 73 73 72 72 72 72 72 71 71
73 75 75 73 73 73 72 73 74 74 73 72 73 75 74 74 75 74 74 74 74 74 73 74 73 73 74 73 73 73 73 73 73 73 73 72 72 73 74 73 72 72
72 73 72 73 72 72 73 74 74 74 74 73 74 74 74 74 75 75 75 75 75 75 75 74 73 73 73 73 74 73 73 73 73 74 74 73 73 71 74 73 74 73
72 73 73 74 72 72 74 75 74 74 74 74 73 74 75 75 76 75 76 76 76 76 75 76 75 75 74 74 74 72 72 72 73 74 74 73 72 73 73 73 72 73
73 73 72 72 71 72 74 75 75 74 75 74 74 74 75 76 75 75 76 76 76 75 76 76 75 75 74 74 73 73 73 72 72 73 72 71 71 72 74 74 72 72
72 73 72 72 72 73 73 75 75 74 75 74 75 75 75 75 76 76 76 76 75 76 76 75 75 74 74 75 75 74 74 73 73 72 73 73 73 74 75 73 72 71
71 71 71 71 72 73 73 74 75 75 75 76 75 75 75 75 75 76 75 76 74 76 76 75 75 75 74 74 74 74 74 73 73 74 73 73 73 73 70 73 72 71
71 71 70 70 71 73 73 74 74 75 75 75 76 76 75 74 75 75 76 76 77 77 77 77 77 76 76 75 75 74 73 73 73 73 73 74 73 73 73 73 72 72
69 70 70 71 71 73 74 75 75 74 75 75 76 76 75 74 75 75 74 76 77 77 76 76 76 76 75 75 75 75 73 73 72 72 72 72 73 73 74 73 73 73
69 69 71 71 72 73 73 73 74 74 74 76 75 75 75 75 75 74 74 74 75 76 76 76 75 75 76 75 76 74 73 73 72 71 72 72 71 73 73 73 73 73
69 70 71 72 72 72 73 73 73 73 74 75 74 74 74 76 75 74 73 74 74 73 74 74 74 74 75 74 74 73 74 72 72 72 71 71 72 72 72 72 73 73
70 70 72 72 72 72 72 72 73 73 73 73 74 74 72 73 74 74 74 73 73 73 72 71 72 73 64 55 59 72 72 73 70 70 71 71 71 71 71 72 72 72
70 70 71 71 71 72 72 72 73 72 72 73 73 73 72 71 71 72 72 73 73 72 71 71 70 69 48 49 48 51 67 71 71 70 69 69 70 70 70 70 71 73
71 71 70 70 71 71 71 72 71 71 71 72 72 70 70 70 68 71 72 72 72 73 71 71 72 55 45 45 44 45 52 68 70 70 69 69 70 70 71 71 71 71
71 71 71 71 71 71 70 70 71 69 70 70 69 69 69 68 69 69 69 70 70 70 70 69 72 48 44 42 43 43 43 54 71 70 69 69 69 69 69 70 70 69
72 72 71 71 70 70 70 71 70 70 69 68 68 66 66 67 67 67 69 69 69 69 68 69 71 49 42 42 43 42 41 48 67 66 67 68 69 69 69 69 69 69
72 72 71 71 71 71 70 70 69 69 69 68 67 65 64 64 65 65 66 68 69 70 69 68 69 43 42 41 41 41 39 44 63 65 64 65 70 70 70 70 70 69
70 70 70 71 71 71 70 70 69 69 68 68 67 65 65 65 65 68 67 67 68 68 68 68 63 39 42 40 41 41 39 58 66 66 66 70 69 69 69 70 70 70
70 69 69 69 69 69 70 69 69 69 68 69 67 67 67 67 68 68 69 68 68 68 67 66 66 46 39 39 40 39 46 66 68 69 71 69 68 68 69 68 68 69
70 70 70 69 69 69 69 69 69 70 70 70 68 68 67 68 69 68 68 67 66 65 68 66 67 49 38 40 39 39 49 68 71 71 70 68 68 68 69 66 59 46
69 69 69 69 69 69 68 68 68 69 71 70 70 70 68 67 66 66 65 67 67 67 56 63 66 51 37 40 38 40 47 67 71 73 69 68 68 67 67 66 63 56
68 68 68 68 69 68 68 68 70 70 69 69 70 71 70 69 67 66 66 67 67 67 66 68 67 64 51 37 40 39 40 60 72 71 69 67 68 68 66 65 64 61
MSLP
1017.15 1017.27 1017.51 1017.59 1017.63 1017.75 1017.95 1018.15 1018.35 1018.55 1018.47 1018.43 1018.71 1018.87 1019.11 1019.31 1019.43 1019.63 1019.71 1019.71 1019.79 1019.87 1019.99 1020.03 1020.03 1020.11 1020.11 1020.19 1020.15 1020.07 1020.27 1020.59 1020.59 1020.59 1020.67 1020.67 1020.83 1020.95 1021.03 1021.03 1020.99 1020.91
1017.19 1017.27 1017.35 1017.43 1017.59 1017.75 1017.91 1018.15 1018.43 1018.59 1018.67 1018.55 1018.67 1018.87 1019.07 1019.27 1019.47 1019.59 1019.75 1019.83 1019.83 1019.99 1020.03 1020.11 1020.15 1020.23 1020.27 1020.31 1020.47 1020.51 1020.67 1020.87 1020.99 1020.87 1021.07 1021.11 1021.11 1021.23 1021.43 1021.43 1021.35 1021.15
1017.19 1017.35 1017.51 1017.63 1017.75 1017.99 1018.11 1018.23 1018.35 1018.51 1018.59 1018.59 1018.79 1018.91 1019.15 1019.31 1019.51 1019.59 1019.67 1019.75 1019.95 1020.11 1020.23 1020.27 1020.35 1020.43 1020.51 1020.59 1020.67 1020.75 1020.95 1021.15 1021.27 1021.19 1021.23 1021.39 1021.39 1021.43 1021.55 1021.47 1021.55 1021.51
1017.27 1017.39 1017.59 1017.79 1017.91 1018.07 1018.15 1018.23 1018.35 1018.51 1018.59 1018.75 1018.87 1018.91 1019.11 1019.31 1019.47 1019.67 1019.79 1019.87 1019.99 1020.15 1020.27 1020.39 1020.47 1020.51 1020.55 1020.75 1020.79 1020.91 1021.15 1021.23 1021.35 1021.43 1021.55 1021.51 1021.55 1021.59 1021.67 1021.63 1021.71 1021.63
1017.43 1017.55 1017.67 1017.91 1017.95 1018.03 1018.15 1018.31 1018.47 1018.59 1018.71 1018.75 1018.87 1018.99 1019.11 1019.27 1019.43 1019.63 1019.75 1019.87 1019.99 1020.19 1020.35 1020.51 1020.59 1020.71 1020.79 1020.87 1020.91 1021.15 1021.27 1021.39 1021.51 1021.47 1021.55 1021.75 1021.75 1021.79 1021.83 1021.87 1022.03 1022.11
1017.43 1017.51 1017.67 1018.07 1018.23 1018.15 1018.23 1018.35 1018.47 1018.67 1018.79 1018.95 1019.03 1018.99 1019.15 1019.23 1019.35 1019.51 1019.71 1019.83 1019.91 1020.11 1020.35 1020.47 1020.67 1020.79 1020.83 1020.99 1021.03 1021.19 1021.27 1021.39 1021.59 1021.59 1021.71 1021.83 1021.91 1021.83 1021.87 1021.99 1022.15 1022.23
1017.55 1017.63 1017.79 1017.91 1018.11 1018.15 1018.11 1018.19 1018.39 1018.59 1018.79 1018.91 1018.99 1019.07 1019.15 1019.27 1019.35 1019.47 1019.63 1019.75 1019.87 1020.03 1020.19 1020.47 1020.67 1020.87 1020.91 1020.99 1021.11 1021.27 1021.31 1021.51 1021.59 1021.59 1021.71 1021.83 1021.95 1022.11 1021.99 1022.03 1022.03 1022.23
1017.47 1017.59 1017.79 1017.83 1018.03 1018.07 1017.99 1018.07 1018.35 1018.55 1018.71 1018.87 1019.11 1019.07 1019.07 1019.19 1019.23 1019.39 1019.51 1019.63 1019.79 1019.95 1020.15 1020.31 1020.51 1020.71 1020.91 1020.95 1021.19 1021.43 1021.59 1021.59 1021.63 1021.59 1021.63 1021.87 1021.95 1021.99 1022.07 1022.11 1022.23 1022.27
1017.35 1017.55 1017.71 1017.87 1017.99 1017.95 1017.95 1017.95 1018.19 1018.43 1018.63 1018.83 1018.95 1019.07 1019.03 1019.07 1019.15 1019.35 1019.43 1019.51 1019.75 1019.91 1020.07 1020.23 1020.39 1020.67 1020.83 1020.95 1021.15 1021.39 1021.55 1021.71 1021.67 1021.67 1021.83 1021.99 1022.03 1022.03 1021.95 1022.11 1022.31 1022.43
1017.39 1017.43 1017.55 1017.63 1017.75 1017.71 1017.87 1017.95 1018.03 1018.31 1018.47 1018.71 1018.71 1018.87 1019.07 1019.03 1019.07 1019.23 1019.39 1019.51 1019.67 1019.83 1020.03 1020.23 1020.35 1020.63 1020.79 1020.83 1020.99 1021.15 1021.35 1021.55 1021.67 1021.79 1021.83 1021.87 1021.87 1021.87 1021.91 1022.15 1022.23 1022.43
1017.43 1017.51 1017.59 1017.59 1017.59 1017.55 1017.83 1017.91 1017.99 1018.19 1018.35 1018.55 1018.63 1018.79 1018.87 1019.07 1019.11 1019.11 1019.35 1019.47 1019.71 1019.75 1019.91 1020.07 1020.23 1020.39 1020.63 1020.79 1020.99 1021.11 1021.19 1021.39 1021.51 1021.63 1021.75 1021.83 1021.87 1021.91 1022.07 1022.03 1022.23 1022.35
1017.23 1017.23 1017.43 1017.47 1017.55 1017.55 1017.67 1017.79 1017.87 1018.03 1018.31 1018.43 1018.47 1018.67 1018.83 1018.95 1019.07 1019.19 1019.31 1019.35 1019.51 1019.51 1019.67 1019.83 1019.91 1020.15 1020.35 1020.59 1020.79 1021.07 1021.19 1021.31 1021.39 1021.55 1021.63 1021.67 1021.83 1021.87 1021.91 1022.03 1022.15 1022.15
1017.23 1017.23 1017.23 1017.39 1017.43 1017.47 1017.47 1017.55 1017.75 1017.95 1018.11 1018.31 1018.39 1018.47 1018.75 1018.91 1018.99 1019.15 1019.27 1019.31 1019.27 1019.39 1019.55 1019.67 1019.79 1019.95 1020.15 1020.39 1020.55 1020.75 1020.95 1021.15 1021.35 1021.47 1021.59 1021.67 1021.67 1021.67 1021.71 1021.83 1021.95 1021.99
1017.19 1017.19 1017.19 1017.23 1017.27 1017.39 1017.47 1017.59 1017.71 1017.87 1017.99 1017.99 1018.23 1018.43 1018.55 1018.67 1018.83 1019.03 1019.27 1019.39 1019.39 1019.43 1019.43 1019.55 1019.79 1019.95 1020.03 1020.23 1020.31 1020.55 1020.79 1020.99 1021.15 1021.35 1021.39 1021.51 1021.63 1021.59 1021.63 1021.71 1021.79 1021.83
1017.23 1017.19 1017.03 1017.03 1017.15 1017.31 1017.39 1017.51 1017.67 1017.79 1017.87 1017.91 1018.15 1018.35 1018.39 1018.43 1018.63 1018.83 1019.15 1019.31 1019.43 1019.47 1019.55 1019.67 1019.75 1019.83 1019.87 1020.11 1020.23 1020.47 1020.59 1020.83 1020.95 1021.07 1021.27 1021.35 1021.43 1021.43 1021.47 1021.55 1021.55 1021.59
1017.15 1017.19 1017.07 1017.03 1017.19 1017.27 1017.35 1017.47 1017.59 1017.71 1017.83 1017.91 1018.07 1018.19 1018.47 1018.55 1018.59 1018.75 1018.91 1019.07 1019.31 1019.43 1019.55 1019.67 1019.71 1019.71 1020.03 1020.27 1020.27 1020.27 1020.51 1020.67 1020.87 1020.95 1021.03 1021.15 1021.31 1021.31 1021.31 1021.35 1021.39 1021.47
1017.11 1017.19 1017.15 1017.15 1017.19 1017.19 1017.23 1017.39 1017.47 1017.59 1017.75 1017.83 1017.91 1018.07 1018.35 1018.55 1018.67 1018.79 1018.83 1018.91 1019.03 1019.19 1019.35 1019.47 1019.55 1019.71 1020.19 1020.35 1020.51 1020.63 1020.47 1020.51 1020.59 1020.75 1020.95 1021.03 1021.07 1021.23 1021.27 1021.19 1021.23 1021.23
1016.95 1017.03 1017.15 1017.15 1017.19 1017.31 1017.35 1017.35 1017.43 1017.59 1017.71 1017.79 1017.91 1018.23 1018.43 1018.59 1018.83 1018.63 1018.67 1018.83 1018.87 1018.95 1019.15 1019.23 1019.23 1019.59 1019.99 1020.27 1020.55 1020.71 1020.67 1020.43 1020.39 1020.51 1020.67 1020.79 1020.83 1020.91 1020.91 1020.91 1020.91 1020.95
1017.03 1017.03 1017.03 1017.15 1017.19 1017.31 1017.39 1017.47 1017.51 1017.71 1017.79 1017.87 1018.11 1018.19 1018.43 1018.71 1018.71 1018.67 1018.75 1018.71 1018.79 1018.91 1019.07 1019.15 1019.15 1019.71 1020.07 1020.39 1020.59 1020.71 1020.83 1020.59 1020.11 1020.15 1020.43 1020.55 1020.67 1020.79 1020.79 1020.75 1020.71 1020.83
1016.99 1017.07 1017.07 1017.15 1017.27 1017.35 1017.39 1017.43 1017.55 1017.67 1017.83 1017.91 1018.07 1018.43 1018.75 1018.75 1018.67 1018.63 1018.55 1018.63 1018.71 1018.83 1018.95 1019.03 1019.03 1019.63 1020.07 1020.39 1020.47 1020.51 1020.63 1020.67 1020.23 1020.19 1020.23 1020.35 1020.51 1020.59 1020.67 1020.67 1020.71 1020.75
1017.07 1017.07 1017.07 1017.11 1017.07 1017.11 1017.27 1017.35 1017.47 1017.55 1017.75 1017.91 1018.11 1018.43 1018.67 1018.63 1018.63 1018.75 1018.75 1018.51 1018.35 1018.51 1018.67 1018.71 1018.79 1019.47 1019.91 1020.15 1020.35 1020.55 1020.75 1020.95 1020.39 1020.23 1020.39 1020.71 1020.31 1020.31 1020.39 1020.43 1020.47 1020.55
1017.35 1017.35 1017.31 1017.19 1017.11 1017.11 1017.19 1017.15 1017.23 1017.39 1017.59 1017.71 1017.91 1018.23 1018.27 1018.35 1018.35 1018.23 1018.23 1018.31 1018.31 1018.35 1018.43 1018.47 1018.95 1019.71 1019.95 1020.11 1020.35 1020.59 1020.95 1020.71 1020.07 1020.15 1020.23 1019.95 1020.15 1020.31 1020.39 1020.35 1020.39 1020.47
1017.51 1017.43 1017.39 1017.31 1017.27 1017.19 1017.11 1017.07 1017.11 1017.19 1017.35 1017.35 1017.67 1017.79 1017.83 1017.87 1017.79 1017.83 1017.87 1017.99 1018.11 1018.23 1018.35 1018.39 1018.67 1019.63 1020.11 1020.39 1020.51 1020.67 1020.71 1019.83 1019.67 1019.59 1019.55 1019.87 1020.11 1020.31 1020.35 1020.59 1020.63 1020.63
1017.55 1017.43 1017.39 1017.31 1017.27 1017.19 1017.11 1017.11 1017.07 1016.91 1016.95 1016.99 1017.23 1017.39 1017.47 1017.47 1017.55 1017.71 1017.91 1017.99 1018.15 1018.35 1018.23 1018.39 1018.51 1019.55 1020.07 1020.31 1020.43 1020.59 1020.11 1019.35 1019.15 1019.07 1019.39 1019.83 1020.11 1020.19 1020.23 1020.67 1021.39 1021.55
1017.71 1017.59 1017.43 1017.39 1017.31 1017.19 1017.23 1017.23 1017.07 1016.95 1016.75 1016.79 1016.83 1016.95 1017.23 1017.47 1017.67 1017.79 1018.07 1018.03 1018.11 1018.19 1018.55 1018.31 1018.51 1019.71 1020.31 1020.51 1020.59 1020.63 1020.47 1019.31 1018.87 1018.83 1019.43 1019.67 1019.87 1020.23 1020.35 1020.63 1021.19 1021.67
1017.87 1017.75 1017.63 1017.51 1017.31 1017.27 1017.23 1017.15 1016.95 1016.83 1016.87 1016.79 1016.59 1016.55 1016.83 1017.11 1017.55 1017.67 1017.91 1017.87 1018.03 1018.15 1018.39 1018.15 1018.35 1018.91 1019.91 1020.27 1020.51 1020.59 1020.51 1019.67 1018.79 1018.83 1019.27 1019.63 1019.71 1019.91 1020.31 1020.63 1021.03 1021.59
Wind_Speed
7 7 7 7 7 7 7 7 6 6 6 6 7 7 6 6 6 5 5 5 6 6 6 5 5 5 5 5 4 5 6 5 5 5 5 5 5 5 4 4 4 3
8 8 7 7 7 7 7 7 7 6 6 7 7 7 7 7 6 6 6 7 6 6 6 6 6 6 5 5 5 5 5 5 5 4 5 5 4 5 5 5 4 3
8 7 7 7 8 9 8 7 7 6 7 7 8 7 7 6 6 6 6 6 7 7 6 6 6 5 5 5 4 5 5 5 5 4 4 5 4 5 4 4 5 4
7 7 6 7 8 9 8 8 7 6 7 7 7 8 7 6 7 7 7 7 7 7 6 6 6 5 5 5 5 5 5 5 5 5 5 4 4 4 5 4 4 4
7 6 6 7 8 8 7 7 7 7 7 7 7 8 8 8 8 7 7 7 7 7 7 6 6 6 5 5 5 6 5 5 5 5 5 5 5 5 4 4 5 5
7 6 6 7 6 7 7 7 7 7 7 7 7 7 7 8 7 8 8 8 7 7 7 7 6 6 5 6 5 5 5 5 5 5 6 6 6 5 4 5 5 5
8 7 8 7 8 8 7 7 7 7 7 6 6 7 8 8 8 8 8 7 8 8 8 7 7 6 5 5 5 5 5 5 5 5 6 5 5 5 4 4 4 5
9 8 8 7 9 8 7 8 7 7 7 7 7 7 8 8 8 7 7 8 8 8 8 8 8 7 6 5 6 6 5 4 5 5 5 6 5 5 5 3 4 5
7 8 8 8 9 7 7 7 7 8 7 7 7 7 7 7 8 8 8 8 8 7 7 7 7 7 6 6 6 7 6 5 4 4 5 5 5 5 6 5 5 4
6 6 7 7 7 6 7 7 7 7 7 7 7 7 7 6 7 8 8 8 8 8 8 7 7 7 6 6 6 6 6 7 6 5 4 4 4 5 5 5 5 4
6 6 5 5 5 6 6 6 7 7 7 7 6 7 7 7 6 7 7 7 7 8 8 8 8 8 7 6 6 5 5 5 5 5 4 4 3 3 3 3 4 4
4 4 4 5 6 6 6 7 6 7 7 6 7 7 7 7 7 6 7 8 8 8 8 8 9 8 8 8 7 6 5 5 4 4 4 4 4 4 5 4 4 4
4 5 5 5 6 7 6 6 6 6 7 8 7 7 7 7 7 7 6 5 6 6 7 8 8 8 7 8 8 8 7 6 6 5 5 5 5 5 5 5 5 5
2 3 5 6 6 7 7 6 6 6 6 6 7 7 7 7 7 6 5 5 5 6 6 6 6 6 7 7 6 6 6 6 6 5 5 5 5 5 5 5 6 6
2 3 3 4 5 6 6 6 5 5 6 6 6 6 5 6 7 7 7 7 7 6 6 5 5 5 5 5 5 5 5 5 5 5 4 4 5 6 6 6 7 7
2 2 2 3 4 5 5 5 4 5 5 6 6 6 5 6 6 7 7 8 8 7 7 6 5 4 6 5 2 3 5 4 4 4 4 4 5 6 6 7 7 6
2 1 1 2 2 3 4 5 5 4 4 5 5 5 6 6 6 7 7 7 8 8 8 7 6 5 10 8 7 2 3 5 4 4 4 5 6 6 7 7 7 7
1 2 2 1 2 3 3 3 2 3 4 4 4 5 5 5 5 6 6 6 7 7 7 7 6 11 14 11 9 8 5 4 4 4 4 5 6 7 6 6 6 6
1 1 1 1 2 2 2 2 3 3 3 4 4 4 4 6 6 6 6 7 7 8 8 7 5 10 11 11 10 10 8 6 5 5 6 5 5 6 6 5 4 4
2 1 0 1 1 2 3 4 4 4 4 4 4 5 6 5 5 7 7 7 7 8 8 8 7 10 10 10 11 11 10 7 5 5 6 5 5 5 4 5 4 4
5 4 3 1 1 3 4 5 5 5 5 5 6 7 7 7 6 6 6 8 10 9 9 9 6 11 10 10 9 8 8 6 5 6 4 6 5 4 3 3 3 2
5 5 5 3 2 2 3 5 5 6 6 7 6 7 7 7 8 8 8 8 9 8 8 9 4 9 8 8 9 9 9 6 5 4 7 6 4 3 3 3 3 3
5 5 4 4 4 3 3 4 4 4 5 5 7 7 8 8 8 7 7 7 8 7 7 7 5 7 7 7 9 10 8 6 7 8 6 5 4 4 4 4 2 0
6 5 5 5 4 4 4 4 4 4 4 5 6 7 7 7 6 6 5 5 6 7 7 6 4 6 6 6 8 11 11 7 7 6 6 5 5 4 4 5 6 9
7 7 6 6 6 5 4 5 5 6 5 5 6 7 6 5 4 3 4 5 6 5 3 4 6 6 5 7 8 11 9 6 7 6 6 6 5 5 5 5 5 7
6 6 6 7 7 6 5 4 4 4 5 6 6 7 7 7 7 8 9 7 7 7 5 4 6 6 7 8 8 9 10 5 6 5 6 6 5 6 6 6 6 6
Wind_Direction
160 161 161 161 158 151 150 147 148 153 143 139 135 134 124 113 109 103 103 95 92 91 88 86 87 89 91 88 66 73 84 80 75 77 80 80 80 85 86 72 61 66
171 170 166 159 146 147 142 143 148 150 144 138 133 128 122 122 117 114 111 108 102 95 94 97 97 96 97 91 80 85 92 90 88 83 92 89 95 85 70 68 71 67
176 172 165 158 149 145 143 148 152 152 145 134 135 135 129 128 127 121 120 112 106 103 101 103 106 102 98 98 97 95 96 99 91 83 81 76 72 82 86 78 75 67
176 170 159 149 146 149 153 156 156 152 142 143 146 140 139 138 133 127 123 122 114 110 109 110 112 114 108 108 113 105 107 105 96 99 99 96 94 92 86 88 87 86
167 167 158 149 149 152 156 160 160 154 149 146 144 147 146 144 143 139 138 129 125 120 120 117 115 112 121 120 116 115 120 113 122 120 109 109 104 103 104 104 102 96
170 176 161 147 155 158 164 165 161 156 152 152 153 152 148 150 148 146 145 141 135 130 129 127 123 123 124 123 124 122 128 124 119 125 119 118 121 123 120 118 117 113
168 169 161 163 168 173 172 166 159 162 157 158 160 158 155 157 154 153 150 148 143 143 138 136 134 132 130 130 125 126 118 119 137 134 130 123 120 124 127 136 125 117
180 174 177 173 173 181 179 170 162 169 160 166 170 165 164 161 158 155 155 156 153 149 148 144 145 139 142 137 130 130 130 140 148 150 137 131 145 136 126 121 135 134
192 182 174 173 179 178 182 183 167 169 169 174 174 169 170 166 159 163 162 159 157 157 155 152 150 145 147 148 143 150 149 151 157 148 146 148 156 151 152 141 149 145
193 185 183 181 180 183 185 188 181 171 177 186 177 170 171 171 163 169 165 165 162 160 158 158 152 150 158 160 158 157 159 156 161 159 162 168 164 165 151 160 157 156
189 182 182 189 201 202 201 195 191 185 178 188 182 175 171 170 171 170 171 175 170 169 162 162 161 162 162 164 155 166 162 154 166 164 167 175 171 163 157 179 161 181
190 196 187 192 203 211 206 205 198 196 184 190 190 182 174 178 179 175 181 181 180 177 166 165 167 166 168 168 162 162 167 164 172 169 183 186 179 197 186 189 195 191
190 202 206 209 213 220 222 222 216 209 201 195 192 191 181 185 188 184 184 199 187 175 173 173 170 171 166 163 165 167 168 170 173 183 189 196 201 204 202 201 205 204
171 202 215 216 221 219 220 224 223 216 213 199 189 197 192 192 187 186 171 187 182 190 184 176 170 176 173 170 176 166 168 173 176 185 198 193 204 214 212 213 212 213
152 200 215 209 207 212 212 212 213 214 208 199 189 197 204 196 184 180 176 184 182 188 182 177 187 182 178 181 180 177 184 186 196 200 214 227 227 224 220 222 222 217
135 165 209 204 212 212 209 210 215 204 201 202 202 198 186 197 187 182 185 185 183 181 187 187 193 194 111 88 18 196 192 202 186 206 223 239 245 247 233 226 227 223
127 121 217 213 229 235 227 225 216 207 207 211 207 204 196 189 193 191 194 188 187 190 187 192 192 159 135 159 167 265 236 200 210 211 212 233 240 235 238 231 221 219
79 143 194 212 234 240 244 241 232 220 215 208 199 185 188 190 204 211 203 200 201 198 191 192 195 147 168 168 179 181 222 224 210 216 218 230 237 234 233 233 229 217
2 314 301 246 244 244 233 243 231 224 226 213 193 191 180 199 203 198 206 211 209 212 212 206 222 150 162 161 166 185 201 230 216 213 230 231 239 238 242 242 229 215
71 64 275 235 250 268 254 239 226 223 205 209 196 187 196 201 223 218 214 212 215 228 230 230 241 153 165 163 176 184 183 199 229 214 215 220 215 216 212 219 218 220
33 37 34 25 248 227 239 241 237 231 211 200 192 186 192 214 229 224 221 233 235 236 238 235 225 144 162 172 175 171 169 200 217 209 169 228 213 203 217 215 215 222
18 26 22 11 323 265 250 247 235 225 211 205 199 201 221 223 225 229 229 230 229 224 227 226 133 131 152 176 168 169 164 198 202 191 203 197 167 165 191 185 194 208
359 355 4 359 1 325 284 273 253 234 212 205 199 210 222 222 223 222 224 222 217 214 214 217 172 136 151 167 173 165 179 200 190 203 191 180 165 154 149 121 109 87
336 332 330 331 319 322 312 275 267 255 221 205 209 212 216 210 205 202 206 211 203 206 203 201 180 126 160 170 180 182 208 210 203 203 174 167 154 140 117 99 64 25
329 325 320 318 315 318 319 300 272 253 234 206 208 205 199 188 182 167 200 198 186 176 40 237 140 128 167 175 190 198 228 237 213 193 177 180 160 140 126 112 102 62
317 317 313 308 308 312 309 294 277 253 226 217 204 198 182 176 177 186 182 164 148 147 159 173 137 138 143 164 186 200 236 280 228 204 189 176 179 154 141 121 111 101